TimeCST,TemperatureF,Dew PointF,Humidity,Sea Level PressureIn,VisibilityMPH,Wind Direction,Wind SpeedMPH,Gust SpeedMPH,PrecipitationIn,Events,Conditions,WindDirDegrees,DateUTC
12:52 AM,3.9,1.0,88,30.21,9.0,NE,5.8,-,0.00,Snow,Light Snow,40,2013-02-02 06:52:00
1:52 AM,5.0,1.4,85,30.06,10.0,Calm,Calm,-,N/A,,Overcast,0,2013-02-02 07:52:00
2:52 AM,5.0,1.0,84,30.18,10.0,Calm,Calm,-,N/A,,Overcast,0,2013-02-02 08:52:00
3:30 AM,6.8,1.4,79,30.05,10.0,Calm,Calm,-,N/A,,Overcast,0,2013-02-02 09:30:00
3:52 AM,6.1,3.0,87,30.16,10.0,Calm,Calm,-,N/A,,Overcast,0,2013-02-02 09:52:00
4:09 AM,6.8,3.2,85,30.03,10.0,SW,4.6,-,N/A,,Overcast,220,2013-02-02 10:09:00
4:33 AM,6.8,3.2,85,30.02,10.0,SSW,5.8,-,N/A,,Overcast,210,2013-02-02 10:33:00
4:39 AM,6.8,3.2,85,30.02,10.0,SSW,6.9,-,N/A,,Overcast,210,2013-02-02 10:39:00
4:52 AM,8.1,3.9,83,30.14,10.0,WSW,5.8,-,N/A,,Overcast,240,2013-02-02 10:52:00
5:44 AM,8.6,6.8,92,30.01,10.0,SSW,5.8,-,N/A,,Overcast,200,2013-02-02 11:44:00
5:52 AM,10.0,6.1,84,30.12,10.0,SSW,6.9,-,N/A,,Overcast,210,2013-02-02 11:52:00
6:22 AM,10.4,6.8,85,29.96,10.0,South,4.6,-,N/A,,Mostly Cloudy,190,2013-02-02 12:22:00
6:52 AM,10.0,7.0,87,30.09,10.0,South,4.6,-,N/A,,Overcast,180,2013-02-02 12:52:00
7:52 AM,14.0,12.0,92,30.06,10.0,SW,10.4,-,N/A,,Mostly Cloudy,220,2013-02-02 13:52:00
8:52 AM,27.0,25.0,92,30.03,10.0,West,18.4,-,0.00,,Overcast,270,2013-02-02 14:52:00
9:52 AM,33.1,30.0,89,30.04,7.0,WNW,27.6,36.8,0.01,,Mostly Cloudy,300,2013-02-02 15:52:00
9:57 AM,33.8,28.4,81,29.94,6.0,WNW,25.3,36.8,N/A,,Mostly Cloudy,300,2013-02-02 15:57:00
10:52 AM,32.0,28.9,88,30.08,6.0,NW,27.6,34.5,0.01,,Mostly Cloudy,310,2013-02-02 16:52:00
11:40 AM,30.2,28.4,93,30.00,2.5,NW,34.5,44.9,0.01,,Overcast,320,2013-02-02 17:40:00
11:45 AM,30.2,28.4,93,30.01,1.0,NNW,27.6,44.9,0.01,Snow,Light Snow,330,2013-02-02 17:45:00
11:52 AM,28.4,26.6,93,30.02,1.5,NNW,27.6,41.4,N/A,Snow,Light Snow,330,2013-02-02 17:52:00
11:59 AM,28.4,26.6,93,30.03,2.0,NNW,27.6,38.0,0.00,,Mostly Cloudy,330,2013-02-02 17:59:00
12:07 PM,28.4,24.8,86,30.04,3.0,NNW,25.3,35.7,0.00,,Overcast,330,2013-02-02 18:07:00
12:19 PM,26.6,24.8,93,30.05,1.8,NNW,31.1,39.1,0.00,Snow,Light Snow,330,2013-02-02 18:19:00
12:52 PM,24.1,19.9,84,30.20,1.2,NNW,32.2,42.6,0.00,Snow,Blowing Snow,330,2013-02-02 18:52:00
1:06 PM,24.8,21.2,86,30.08,2.0,NNW,29.9,40.3,0.00,Snow,Light Snow,330,2013-02-02 19:06:00
1:12 PM,24.8,19.4,80,30.08,1.8,NW,26.5,40.3,0.00,Snow,Blowing Snow,320,2013-02-02 19:12:00
1:22 PM,24.8,19.4,80,30.09,2.0,NW,27.6,38.0,0.00,Snow,Blowing Snow,320,2013-02-02 19:22:00
1:47 PM,23.0,17.6,80,30.10,1.8,NW,28.8,43.7,0.00,Snow,Blowing Snow,320,2013-02-02 19:47:00
1:52 PM,23.0,18.0,81,30.24,2.0,NW,33.4,42.6,0.00,Snow,Blowing Snow,310,2013-02-02 19:52:00
1:57 PM,21.2,17.6,86,30.11,1.2,NW,31.1,44.9,N/A,Snow,Blowing Snow,320,2013-02-02 19:57:00
2:04 PM,21.2,17.6,86,30.12,2.0,NW,27.6,44.9,N/A,Snow,Blowing Snow,320,2013-02-02 20:04:00
2:10 PM,21.2,17.6,86,30.12,4.0,NW,25.3,38.0,N/A,Snow,Blowing Snow,320,2013-02-02 20:10:00
2:18 PM,23.0,17.6,80,30.12,4.0,NW,29.9,38.0,N/A,Snow,Blowing Snow,320,2013-02-02 20:18:00
2:52 PM,21.9,17.1,82,30.26,10.0,NW,19.6,28.8,N/A,,Partly Cloudy,310,2013-02-02 20:52:00
3:37 PM,21.2,15.8,80,30.15,10.0,NW,16.1,-,N/A,,Mostly Cloudy,320,2013-02-02 21:37:00
3:52 PM,21.9,17.1,82,30.28,10.0,NNW,19.6,-,N/A,,Overcast,330,2013-02-02 21:52:00
4:18 PM,21.2,15.8,80,30.16,10.0,NNW,13.8,-,N/A,,Scattered Clouds,330,2013-02-02 22:18:00
4:52 PM,21.0,16.0,81,30.29,10.0,NNW,13.8,-,N/A,,Scattered Clouds,330,2013-02-02 22:52:00
5:08 PM,21.2,15.8,80,30.17,10.0,NNW,12.7,-,N/A,,Mostly Cloudy,340,2013-02-02 23:08:00
5:30 PM,19.4,15.8,86,30.16,10.0,NNW,12.7,-,N/A,,Mostly Cloudy,340,2013-02-02 23:30:00
5:52 PM,19.0,15.1,85,30.28,10.0,NNW,11.5,-,N/A,,Overcast,330,2013-02-02 23:52:00
6:52 PM,17.1,14.0,88,30.28,10.0,North,4.6,-,N/A,,Overcast,360,2013-02-03 00:52:00
7:52 PM,19.4,15.8,86,30.15,10.0,South,5.8,-,N/A,,Overcast,170,2013-02-03 01:52:00
8:52 PM,19.0,16.0,88,30.23,10.0,WSW,3.5,-,N/A,,Overcast,250,2013-02-03 02:52:00
9:52 PM,21.0,18.0,88,30.20,10.0,Calm,Calm,-,N/A,,Overcast,0,2013-02-03 03:52:00
10:52 PM,24.1,19.9,84,30.19,8.0,West,5.8,-,0.00,Snow,Light Snow,270,2013-02-03 04:52:00
11:52 PM,23.0,21.0,92,30.14,10.0,SW,3.5,-,0.00,,Overcast,220,2013-02-03 05:52:00